Location: Barcelona
(41.3830°N, 2.1830°E)
Time: 01:34:36
(UTC+02:00)

ISS - Pass Details

Date: 19 July 2019
Orbit: 409 x 418 km, 51.6° (Epoch: 23 July)

Event Time Altitude Azimuth Distance (km) Brightness Sun altitude
Rises 22:10:15 0° 234° (SW) 2,345 0.3 -8.6°
Reaches altitude 10° 22:12:20 10° 234° (SW) 1,484 -0.8 -8.9°
Maximum altitude 22:15:40 88° 314° (NW) 419 -3.8 -9.4°
Drops below altitude 10° 22:19:01 10° 54° (NE) 1,487 -1.1 -9.9°
Sets 22:21:07 0° 55° (NE) 2,350 -0.1 -10.2°
